Location: Leo
(52.0556°N, 112.3605°W)
Time: 08:08:36
(UTC+00:00)

FO-29 - Pass Details

Date: 30 November 2023
Orbit: 799 x 1322 km, 98.6° (Epoch: 04 March)

Event Time Altitude Azimuth Distance (km) Brightness Sun altitude
Rises 08:31:34 0° 25° (NNE) 4,066 13.2 -56.4°
Reaches altitude 10° 08:35:40 10° 48° (NE) 3,192 12.5 -56.1°
Enters shadow 08:36:03 11° 51° (NE) 3,133 12.5 -56.0°
